N749PL ENBR-ENZV

Flight info

Callsign N749PL
Flight time 0h 33m
Altitude 13000
Route BEGOD
Aircraft PC12/L-SDFGRWY/S

Departure

Time 2026-04-12 03:12
Airport Bergen Airport, Flesland (ENBR)

Arrival

Time 2026-04-12 03:45
Airport Stavanger Airport, Sola (ENZV)
Time Latitude Longitude Altitude Speed Heading
2026-04-12 03:04 60.29460 5.22599 154 ft 0 kts 266°
2026-04-12 03:07 60.29460 5.22598 155 ft 0 kts 263°
2026-04-12 03:07 60.29458 5.22588 155 ft 0 kts 220°
2026-04-12 03:07 60.29456 5.22585 155 ft 0 kts 184°
2026-04-12 03:08 60.29440 5.22601 155 ft 6 kts 115°
2026-04-12 03:08 60.29494 5.22569 154 ft 17 kts 315°
2026-04-12 03:08 60.29551 5.22427 153 ft 8 kts 347°
2026-04-12 03:09 60.29561 5.22349 152 ft 9 kts 262°
2026-04-12 03:10 60.29552 5.22231 152 ft 13 kts 263°
2026-04-12 03:10 60.29639 5.22160 150 ft 18 kts 347°
2026-04-12 03:10 60.29725 5.22110 150 ft 14 kts 302°
2026-04-12 03:10 60.29718 5.21937 150 ft 13 kts 265°
2026-04-12 03:11 60.29709 5.21807 150 ft 10 kts 267°
2026-04-12 03:11 60.29677 5.21702 151 ft 6 kts 179°
2026-04-12 03:11 60.29619 5.21720 151 ft 36 kts 168°
2026-04-12 03:11 60.29149 5.21857 209 ft 89 kts 169°
2026-04-12 03:12 60.28522 5.21811 659 ft 88 kts 169°
2026-04-12 03:12 60.27896 5.21846 1069 ft 93 kts 160°
2026-04-12 03:12 60.27330 5.22207 1591 ft 85 kts 152°
2026-04-12 03:12 60.26765 5.22538 2022 ft 90 kts 153°
2026-04-12 03:13 60.26113 5.22851 2321 ft 103 kts 155°
2026-04-12 03:13 60.25357 5.23153 2588 ft 119 kts 160°
2026-04-12 03:13 60.24523 5.23429 3061 ft 121 kts 159°
2026-04-12 03:13 60.23708 5.23702 3579 ft 119 kts 159°
2026-04-12 03:14 60.22912 5.23966 4099 ft 116 kts 160°
2026-04-12 03:14 60.22115 5.24233 4568 ft 117 kts 161°
2026-04-12 03:14 60.21342 5.24492 5063 ft 115 kts 161°
2026-04-12 03:14 60.20563 5.24753 5568 ft 115 kts 163°
2026-04-12 03:15 60.19791 5.25009 6077 ft 113 kts 163°
2026-04-12 03:15 60.19032 5.25264 6603 ft 111 kts 165°
2026-04-12 03:15 60.18275 5.25518 7019 ft 115 kts 165°
2026-04-12 03:15 60.17480 5.25783 7493 ft 116 kts 165°
2026-04-12 03:16 60.16679 5.26050 7909 ft 120 kts 167°
2026-04-12 03:16 60.15855 5.26325 8355 ft 122 kts 166°
2026-04-12 03:16 60.14995 5.26610 8747 ft 127 kts 166°
2026-04-12 03:16 60.14133 5.26897 9187 ft 128 kts 167°
2026-04-12 03:17 60.13263 5.27186 9600 ft 129 kts 167°
2026-04-12 03:17 60.12376 5.27482 9993 ft 132 kts 168°
2026-04-12 03:17 60.11463 5.27785 10458 ft 131 kts 167°
2026-04-12 03:17 60.10582 5.28081 10871 ft 131 kts 167°
2026-04-12 03:18 60.09675 5.28357 11293 ft 131 kts 171°
2026-04-12 03:18 60.08778 5.28163 11730 ft 132 kts 181°
2026-04-12 03:18 60.07877 5.27757 12094 ft 134 kts 184°
2026-04-12 03:18 60.06966 5.27285 12419 ft 136 kts 185°
2026-04-12 03:19 60.06056 5.26813 12764 ft 137 kts 184°
2026-04-12 03:19 60.05074 5.26322 12808 ft 152 kts 186°
2026-04-12 03:19 60.04007 5.25791 12813 ft 165 kts 186°
2026-04-12 03:19 60.02869 5.25227 12808 ft 172 kts 186°
2026-04-12 03:20 60.01679 5.24619 12821 ft 179 kts 186°
2026-04-12 03:20 60.00446 5.23998 12822 ft 183 kts 186°
2026-04-12 03:20 59.99197 5.23370 12838 ft 187 kts 186°
2026-04-12 03:20 59.97919 5.22739 12808 ft 189 kts 186°
2026-04-12 03:21 59.96655 5.22103 12821 ft 190 kts 187°
2026-04-12 03:21 59.95361 5.21464 12799 ft 190 kts 187°
2026-04-12 03:21 59.94094 5.20818 12811 ft 190 kts 187°
2026-04-12 03:21 59.92815 5.20182 12806 ft 189 kts 187°
2026-04-12 03:22 59.91533 5.19538 12838 ft 189 kts 187°
2026-04-12 03:22 59.90247 5.18911 12811 ft 189 kts 188°
2026-04-12 03:22 59.89068 5.18333 12829 ft 188 kts 188°
2026-04-12 03:22 59.87782 5.17686 12823 ft 188 kts 189°
2026-04-12 03:23 59.86628 5.17116 12835 ft 187 kts 187°
2026-04-12 03:23 59.85284 5.16446 12823 ft 188 kts 187°
2026-04-12 03:23 59.84031 5.15827 12834 ft 188 kts 186°
2026-04-12 03:23 59.82759 5.15196 12819 ft 188 kts 187°
2026-04-12 03:24 59.81490 5.14596 12813 ft 187 kts 186°
2026-04-12 03:24 59.80223 5.13980 12820 ft 187 kts 188°
2026-04-12 03:24 59.78942 5.13544 12815 ft 183 kts 178°
2026-04-12 03:24 59.77676 5.13595 12817 ft 182 kts 173°
2026-04-12 03:25 59.76413 5.13782 12807 ft 182 kts 172°
2026-04-12 03:25 59.75145 5.14008 12807 ft 183 kts 172°
2026-04-12 03:25 59.73874 5.14229 12814 ft 184 kts 172°
2026-04-12 03:25 59.72620 5.14442 12810 ft 185 kts 172°
2026-04-12 03:26 59.71323 5.14658 12811 ft 185 kts 172°
2026-04-12 03:26 59.70029 5.14873 12814 ft 186 kts 172°
2026-04-12 03:26 59.68733 5.15086 12814 ft 186 kts 172°
2026-04-12 03:26 59.67430 5.15300 12818 ft 186 kts 172°
2026-04-12 03:27 59.66140 5.15511 12818 ft 187 kts 172°
2026-04-12 03:27 59.64834 5.15724 12820 ft 187 kts 172°
2026-04-12 03:27 59.63545 5.15935 12817 ft 188 kts 172°
2026-04-12 03:27 59.62233 5.16152 12816 ft 188 kts 172°
2026-04-12 03:28 59.60931 5.16368 12818 ft 188 kts 172°
2026-04-12 03:28 59.59612 5.16585 12816 ft 189 kts 173°
2026-04-12 03:28 59.58301 5.16805 12811 ft 189 kts 173°
2026-04-12 03:28 59.56986 5.17018 12834 ft 188 kts 173°
2026-04-12 03:29 59.55682 5.17231 12824 ft 189 kts 173°
2026-04-12 03:29 59.54351 5.17454 12597 ft 198 kts 172°
2026-04-12 03:29 59.52954 5.17688 12348 ft 205 kts 173°
2026-04-12 03:29 59.51519 5.17923 12090 ft 208 kts 173°
2026-04-12 03:30 59.50065 5.18160 11832 ft 209 kts 173°
2026-04-12 03:30 59.48593 5.18400 11567 ft 210 kts 173°
2026-04-12 03:30 59.47146 5.18637 11289 ft 212 kts 173°
2026-04-12 03:30 59.45656 5.18882 11004 ft 214 kts 173°
2026-04-12 03:31 59.44174 5.19125 10715 ft 215 kts 173°
2026-04-12 03:31 59.42675 5.19369 10423 ft 216 kts 174°
2026-04-12 03:31 59.41217 5.19607 10141 ft 218 kts 173°
2026-04-12 03:31 59.39785 5.20448 9867 ft 219 kts 152°
2026-04-12 03:32 59.38501 5.22025 9586 ft 218 kts 149°
2026-04-12 03:32 59.37258 5.23737 9298 ft 217 kts 146°
2026-04-12 03:32 59.36044 5.25479 9009 ft 216 kts 146°
2026-04-12 03:32 59.34827 5.27213 8715 ft 215 kts 146°
2026-04-12 03:33 59.33618 5.28908 8423 ft 214 kts 147°
2026-04-12 03:33 59.32406 5.30614 8119 ft 212 kts 147°
2026-04-12 03:33 59.31207 5.32283 7828 ft 211 kts 147°
2026-04-12 03:33 59.30029 5.33928 7543 ft 211 kts 148°
2026-04-12 03:34 59.28833 5.35592 7265 ft 211 kts 147°
2026-04-12 03:34 59.27629 5.37264 6977 ft 212 kts 147°
2026-04-12 03:34 59.26430 5.38928 6692 ft 213 kts 148°
2026-04-12 03:34 59.25217 5.40580 6405 ft 213 kts 151°
2026-04-12 03:35 59.23835 5.41586 6108 ft 211 kts 165°
2026-04-12 03:35 59.22425 5.42295 5823 ft 210 kts 167°
2026-04-12 03:35 59.21001 5.42902 5538 ft 210 kts 167°
2026-04-12 03:35 59.19572 5.43527 5258 ft 208 kts 166°
2026-04-12 03:36 59.18188 5.44147 4981 ft 206 kts 165°
2026-04-12 03:36 59.16854 5.44791 4694 ft 205 kts 165°
2026-04-12 03:36 59.15439 5.45439 4400 ft 206 kts 165°
2026-04-12 03:36 59.14044 5.46114 4112 ft 207 kts 165°
2026-04-12 03:37 59.12629 5.46782 3815 ft 208 kts 163°
2026-04-12 03:37 59.11240 5.47433 3530 ft 208 kts 163°
2026-04-12 03:37 59.09904 5.48036 3230 ft 189 kts 165°
2026-04-12 03:37 59.08691 5.48623 2965 ft 178 kts 162°
2026-04-12 03:38 59.07520 5.49182 2688 ft 171 kts 161°
2026-04-12 03:38 59.06380 5.49736 2481 ft 167 kts 160°
2026-04-12 03:38 59.05353 5.50717 2472 ft 163 kts 143°
2026-04-12 03:38 59.04570 5.52281 2473 ft 164 kts 127°
2026-04-12 03:39 59.04056 5.54339 2410 ft 174 kts 116°
2026-04-12 03:39 59.03632 5.56561 2280 ft 180 kts 114°
2026-04-12 03:39 59.03236 5.58886 2152 ft 182 kts 113°
2026-04-12 03:39 59.02733 5.61136 2003 ft 177 kts 127°
2026-04-12 03:40 59.01849 5.62664 1971 ft 170 kts 147°
2026-04-12 03:40 59.00747 5.63365 2036 ft 168 kts 163°
2026-04-12 03:40 58.99552 5.63455 1948 ft 170 kts 171°
2026-04-12 03:40 58.98393 5.63466 1804 ft 157 kts 171°
2026-04-12 03:41 58.97446 5.63460 1650 ft 116 kts 168°
2026-04-12 03:41 58.96730 5.63481 1538 ft 90 kts 165°
2026-04-12 03:41 58.96153 5.63502 1443 ft 77 kts 164°
2026-04-12 03:41 58.95637 5.63528 1323 ft 72 kts 163°
2026-04-12 03:42 58.95139 5.63552 1217 ft 70 kts 165°
2026-04-12 03:42 58.94647 5.63579 1116 ft 72 kts 164°
2026-04-12 03:42 58.94143 5.63598 1021 ft 74 kts 165°
2026-04-12 03:42 58.93613 5.63619 928 ft 77 kts 164°
2026-04-12 03:43 58.93071 5.63636 813 ft 78 kts 168°
2026-04-12 03:43 58.92520 5.63652 707 ft 81 kts 168°
2026-04-12 03:43 58.91954 5.63662 597 ft 78 kts 169°
2026-04-12 03:43 58.91459 5.63667 483 ft 64 kts 168°
2026-04-12 03:44 58.91002 5.63682 395 ft 66 kts 166°
2026-04-12 03:44 58.90533 5.63696 327 ft 69 kts 164°
2026-04-12 03:44 58.90042 5.63711 245 ft 70 kts 168°
2026-04-12 03:44 58.89557 5.63719 127 ft 67 kts 168°
2026-04-12 03:45 58.89099 5.63740 35 ft 65 kts 164°
2026-04-12 03:45 58.88786 5.63750 19 ft 23 kts 178°
2026-04-12 03:45 58.88708 5.63643 19 ft 13 kts 268°
2026-04-12 03:45 58.88713 5.63462 20 ft 13 kts 299°
2026-04-12 03:46 58.88797 5.63417 19 ft 14 kts
2026-04-12 03:46 58.88905 5.63413 18 ft 17 kts 357°
2026-04-12 03:46 58.89012 5.63403 17 ft 5 kts 330°
2026-04-12 03:46 58.89057 5.63332 17 ft 6 kts 292°
2026-04-12 03:47 58.89056 5.63276 19 ft 1 kts 268°
2026-04-12 03:47 58.89057 5.63273 19 ft 0 kts 267°
2026-04-12 03:55 58.89057 5.63267 19 ft 0 kts 274°
2026-04-12 03:56 58.89065 5.63250 19 ft 3 kts 349°
2026-04-12 03:56 58.89076 5.63288 18 ft 3 kts 88°
2026-04-12 03:56 58.89076 5.63303 17 ft 0 kts 93°
2026-04-12 03:56 58.89103 5.63392 16 ft 18 kts 22°
2026-04-12 03:57 58.89304 5.63401 14 ft 19 kts
2026-04-12 03:57 58.89345 5.63567 14 ft 11 kts 88°
2026-04-12 03:57 58.89334 5.63691 13 ft 7 kts 135°